カタログに戻る

AETHER-9

運用中通信SSO
NORAD 67380·PAYLOAD·🇨🇦 Canada

打ち上げ Jan 11, 2026 から Vandenberg Space Force Base

Loading…

次のパス (今後24時間)

TLE

最新Source: Space-Track

元期: Sep 14, 2026, 09:48 UTC

1 67380U 26004T   26257.40897330  .00000441  00000-0  56716-4 0  9990
2 67380  97.8072 254.2809 0001229 163.4517 196.6739 14.85840213 36534

AllMySatでAETHER-9をリアルタイム追跡

Download on the App Store